| time (UTC) | temp F | wind direction | speed MPH | gust MPH | rain 1hr in | rain 24hr in | rain mn in | humidity % | barometer mb |
| 20260902090018 | 70 | 0.0 | 1.0 | 0.00 | 0.02 | 0.00 | 61 | 1013.1 | |
| 20260902085018 | 70 | 0.0 | 1.0 | 0.00 | 0.02 | 0.00 | 56 | 1013.2 | |
| 20260902084018 | 71 | 0.0 | 1.0 | 0.00 | 0.02 | 0.00 | 54 | 1013.1 | |
| 20260902083018 | 71 | 248 | 1.0 | 2.0 | 0.00 | 0.02 | 0.00 | 56 | 1013.0 |
| 20260902082018 | 72 | 0.0 | 2.0 | 0.00 | 0.02 | 0.00 | 51 | 1012.9 | |
| 20260902081018 | 73 | 0.0 | 2.0 | 0.00 | 0.02 | 0.00 | 52 | 1013.0 | |
| 20260902080018 | 73 | 0.0 | 1.0 | 0.00 | 0.02 | 0.00 | 50 | 1013.1 | |
| 20260902075018 | 74 | 248 | 1.0 | 2.0 | 0.00 | 0.02 | 0.00 | 47 | 1013.3 |
| 20260902074018 | 74 | 248 | 1.0 | 2.0 | 0.00 | 0.02 | 0.00 | 44 | 1013.0 |
| 20260902073018 | 75 | 248 | 1.0 | 2.0 | 0.00 | 0.02 | 0.00 | 44 | 1013.0 |
| 20260902072018 | 75 | 248 | 1.0 | 3.0 | 0.00 | 0.02 | 0.00 | 42 | 1012.8 |
| 20260902071018 | 76 | 248 | 2.0 | 3.0 | 0.00 | 0.02 | 0.00 | 41 | 1012.9 |
| 20260902070018 | 76 | 270 | 2.0 | 5.0 | 0.00 | 0.02 | 0.00 | 41 | 1012.9 |
| 20260902065018 | 76 | 270 | 4.0 | 8.0 | 0.00 | 0.02 | 0.00 | 40 | 1012.9 |
| 20260902064018 | 76 | 248 | 6.0 | 11.0 | 0.00 | 0.02 | 0.00 | 39 | 1013.1 |
| 20260902063018 | 77 | 248 | 5.0 | 9.0 | 0.00 | 0.02 | 0.00 | 39 | 1013.1 |
| 20260902062018 | 77 | 293 | 5.0 | 10.0 | 0.00 | 0.02 | 0.00 | 39 | 1013.0 |
| 20260902061018 | 77 | 270 | 4.0 | 10.0 | 0.00 | 0.02 | 0.00 | 40 | 1013.2 |
| 20260902060018 | 77 | 270 | 4.0 | 8.0 | 0.00 | 0.02 | 0.00 | 40 | 1013.3 |
| 20260902055018 | 76 | 293 | 2.0 | 5.0 | 0.00 | 0.02 | 0.00 | 41 | 1013.4 |
| 20260902054018 | 76 | 270 | 3.0 | 8.0 | 0.00 | 0.02 | 0.00 | 40 | 1013.7 |
| 20260902053018 | 77 | 248 | 5.0 | 12.0 | 0.00 | 0.02 | 0.00 | 40 | 1013.8 |
| 20260902052018 | 78 | 270 | 7.0 | 14.0 | 0.00 | 0.02 | 0.00 | 37 | 1013.7 |
| 20260902051018 | 77 | 270 | 7.0 | 15.0 | 0.00 | 0.02 | 0.00 | 39 | 1013.8 |
| 20260902050018 | 77 | 270 | 6.0 | 12.0 | 0.00 | 0.02 | 0.00 | 39 | 1013.8 |
| 20260902045018 | 77 | 248 | 4.0 | 9.0 | 0.00 | 0.02 | 0.00 | 40 | 1013.8 |
| 20260902044018 | 78 | 270 | 4.0 | 10.0 | 0.00 | 0.02 | 0.00 | 39 | 1013.8 |
| 20260902043018 | 77 | 248 | 5.0 | 12.0 | 0.00 | 0.02 | 0.00 | 40 | 1013.9 |
| 20260902042018 | 77 | 248 | 3.0 | 7.0 | 0.00 | 0.02 | 0.00 | 40 | 1014.0 |
| 20260902041018 | 77 | 248 | 5.0 | 10.0 | 0.00 | 0.02 | 0.00 | 40 | 1014.3 |
| 20260902040017 | 77 | 248 | 4.0 | 7.0 | 0.00 | 0.02 | 0.00 | 40 | 1014.3 |
| 20260902035017 | 77 | 293 | 4.0 | 12.0 | 0.00 | 0.02 | 0.00 | 40 | 1014.3 |
| 20260902034017 | 78 | 293 | 5.0 | 11.0 | 0.00 | 0.02 | 0.00 | 38 | 1014.6 |
| 20260902033017 | 77 | 293 | 6.0 | 14.0 | 0.00 | 0.02 | 0.00 | 42 | 1014.7 |
| 20260902032017 | 77 | 270 | 5.0 | 10.0 | 0.00 | 0.02 | 0.00 | 43 | 1015.0 |
| 20260902031017 | 77 | 293 | 4.0 | 6.0 | 0.00 | 0.02 | 0.00 | 43 | 1015.2 |
| 20260902030017 | 77 | 293 | 3.0 | 7.0 | 0.00 | 0.02 | 0.00 | 43 | 1015.4 |
| 20260902025018 | 77 | 315 | 4.0 | 9.0 | 0.00 | 0.02 | 0.00 | 43 | 1015.6 |
| 20260902024017 | 76 | 315 | 5.0 | 11.0 | 0.00 | 0.02 | 0.00 | 44 | 1015.8 |
| 20260902023017 | 76 | 270 | 4.0 | 8.0 | 0.00 | 0.02 | 0.00 | 44 | 1015.8 |
| 20260902022017 | 76 | 293 | 3.0 | 11.0 | 0.00 | 0.02 | 0.00 | 45 | 1016.0 |
| 20260902021017 | 76 | 270 | 4.0 | 10.0 | 0.00 | 0.02 | 0.00 | 46 | 1016.2 |
| 20260902020017 | 76 | 293 | 1.0 | 4.0 | 0.00 | 0.02 | 0.00 | 47 | 1016.3 |
| 20260902015017 | 74 | 293 | 2.0 | 6.0 | 0.00 | 0.02 | 0.00 | 49 | 1016.4 |
| 20260902014017 | 73 | 248 | 2.0 | 8.0 | 0.00 | 0.02 | 0.00 | 48 | 1016.4 |
| 20260902013017 | 73 | 248 | 2.0 | 4.0 | 0.00 | 0.02 | 0.00 | 49 | 1016.6 |
| 20260902012017 | 73 | 338 | 1.0 | 4.0 | 0.00 | 0.02 | 0.00 | 51 | 1016.9 |
| 20260902011017 | 73 | 248 | 2.0 | 7.0 | 0.00 | 0.02 | 0.00 | 51 | 1017.0 |
| 20260902010017 | 73 | 270 | 1.0 | 7.0 | 0.00 | 0.02 | 0.00 | 51 | 1017.0 |
| 20260902005017 | 72 | 293 | 1.0 | 4.0 | 0.00 | 0.02 | 0.00 | 51 | 1017.2 |
| 20260902004017 | 72 | 23 | 1.0 | 4.0 | 0.00 | 0.02 | 0.00 | 52 | 1017.3 |
| 20260902003017 | 71 | 315 | 2.0 | 6.0 | 0.00 | 0.02 | 0.00 | 52 | 1017.4 |
| 20260902002017 | 71 | 315 | 1.0 | 2.0 | 0.00 | 0.02 | 0.00 | 54 | 1017.6 |
| 20260902001017 | 70 | 0 | 1.0 | 3.0 | 0.00 | 0.02 | 0.00 | 55 | 1017.7 |
| 20260902000017 | 70 | 23 | 1.0 | 3.0 | 0.00 | 0.02 | 0.00 | 57 | 1017.7 |
| 20260901235017 | 69 | 315 | 1.0 | 4.0 | 0.00 | 0.02 | 0.00 | 59 | 1017.6 |
| 20260901234017 | 68 | 45 | 1.0 | 4.0 | 0.00 | 0.02 | 0.00 | 61 | 1017.7 |
| 20260901233017 | 68 | 23 | 1.0 | 3.0 | 0.00 | 0.02 | 0.00 | 61 | 1017.7 |
| 20260901232017 | 66 | 0.0 | 2.0 | 0.00 | 0.02 | 0.00 | 63 | 1017.8 | |
| 20260901231017 | 65 | 0.0 | 2.0 | 0.00 | 0.02 | 0.00 | 63 | 1017.9 | |
| 20260901230027 | 65 | 0.0 | 2.0 | 0.00 | 0.02 | 0.00 | 63 | 1017.8 | |
| 20260901225017 | 64 | 248 | 1.0 | 2.0 | 0.00 | 0.02 | 0.00 | 65 | 1017.8 |
| 20260901224017 | 63 | 315 | 2.0 | 3.0 | 0.00 | 0.02 | 0.00 | 65 | 1017.8 |
| 20260901223019 | 62 | 293 | 2.0 | 3.0 | 0.00 | 0.02 | 0.00 | 68 | 1017.8 |
| 20260901222019 | 61 | 315 | 1.0 | 2.0 | 0.00 | 0.02 | 0.00 | 71 | 1017.6 |
| 20260901221018 | 60 | 315 | 1.0 | 2.0 | 0.00 | 0.02 | 0.00 | 75 | 1017.6 |
| 20260901220019 | 57 | 0.0 | 1.0 | 0.00 | 0.02 | 0.00 | 80 | 1017.5 | |
| 20260901215019 | 56 | 0.0 | 2.0 | 0.00 | 0.02 | 0.00 | 82 | 1017.4 | |
| 20260901214018 | 54 | 0.0 | 2.0 | 0.00 | 0.02 | 0.00 | 84 | 1017.3 | |
| 20260901213018 | 53 | 0.0 | 1.0 | 0.00 | 0.02 | 0.00 | 83 | 1017.1 | |
| 20260901212019 | 52 | 0.0 | 0.0 | 0.00 | 0.02 | 0.00 | 83 | 1016.9 | |
| 20260901211018 | 52 | 0.0 | 0.0 | 0.00 | 0.02 | 0.00 | 82 | 1016.8 | |
| 20260901210018 | 53 | 293 | 1.0 | 1.0 | 0.00 | 0.02 | 0.00 | 80 | 1016.8 |
| 20260901205018 | 53 | 0.0 | 1.0 | 0.00 | 0.02 | 0.00 | 80 | 1016.7 | |
| 20260901204018 | 54 | 0.0 | 0.0 | 0.00 | 0.02 | 0.00 | 79 | 1016.7 | |
| 20260901203018 | 54 | 0.0 | 2.0 | 0.00 | 0.02 | 0.00 | 79 | 1016.6 | |
| 20260901202018 | 54 | 0.0 | 2.0 | 0.00 | 0.02 | 0.00 | 79 | 1016.6 | |
| 20260901201018 | 54 | 0.0 | 2.0 | 0.00 | 0.02 | 0.00 | 79 | 1016.6 | |
| 20260901200018 | 54 | 0.0 | 2.0 | 0.00 | 0.02 | 0.00 | 78 | 1016.6 | |
| 20260901195018 | 55 | 293 | 1.0 | 2.0 | 0.00 | 0.02 | 0.00 | 77 | 1016.6 |
| 20260901194018 | 55 | 293 | 1.0 | 1.0 | 0.00 | 0.02 | 0.00 | 77 | 1016.5 |
| 20260901193018 | 56 | 0.0 | 2.0 | 0.00 | 0.02 | 0.00 | 76 | 1016.4 | |
| 20260901192018 | 56 | 0.0 | 2.0 | 0.00 | 0.02 | 0.00 | 75 | 1016.3 | |
| 20260901191018 | 56 | 293 | 1.0 | 2.0 | 0.00 | 0.02 | 0.00 | 75 | 1016.3 |
| 20260901190018 | 57 | 0.0 | 3.0 | 0.00 | 0.02 | 0.00 | 74 | 1016.2 | |
| 20260901185018 | 57 | 0.0 | 2.0 | 0.00 | 0.02 | 0.00 | 74 | 1016.0 | |
| 20260901184018 | 58 | 0.0 | 2.0 | 0.00 | 0.02 | 0.00 | 73 | 1015.9 | |
| 20260901183018 | 58 | 293 | 1.0 | 2.0 | 0.00 | 0.02 | 0.00 | 73 | 1015.9 |
| 20260901182018 | 58 | 293 | 1.0 | 2.0 | 0.00 | 0.02 | 0.00 | 73 | 1015.6 |
| 20260901181018 | 59 | 0.0 | 1.0 | 0.00 | 0.02 | 0.00 | 73 | 1015.5 | |
| 20260901180018 | 59 | 0.0 | 2.0 | 0.00 | 0.02 | 0.00 | 72 | 1015.4 | |
| 20260901175018 | 59 | 0.0 | 1.0 | 0.00 | 0.02 | 0.00 | 71 | 1015.4 | |
| 20260901174018 | 59 | 293 | 1.0 | 2.0 | 0.00 | 0.02 | 0.00 | 71 | 1015.4 |
| 20260901173018 | 59 | 270 | 1.0 | 2.0 | 0.00 | 0.02 | 0.00 | 70 | 1015.4 |
| 20260901172018 | 59 | 248 | 2.0 | 3.0 | 0.00 | 0.02 | 0.00 | 70 | 1015.5 |
| 20260901171018 | 59 | 315 | 3.0 | 5.0 | 0.00 | 0.02 | 0.00 | 69 | 1015.3 |
| 20260901170018 | 59 | 293 | 2.0 | 3.0 | 0.00 | 0.02 | 0.00 | 69 | 1015.5 |
| 20260901165018 | 59 | 293 | 2.0 | 4.0 | 0.00 | 0.02 | 0.00 | 69 | 1015.6 |
| 20260901164018 | 59 | 293 | 1.0 | 2.0 | 0.00 | 0.02 | 0.00 | 71 | 1015.7 |
| 20260901163018 | 60 | 270 | 2.0 | 3.0 | 0.00 | 0.02 | 0.00 | 70 | 1015.9 |
| 20260901162018 | 60 | 0.0 | 2.0 | 0.00 | 0.02 | 0.00 | 72 | 1015.8 | |
| 20260901161018 | 60 | 0.0 | 2.0 | 0.00 | 0.02 | 0.00 | 72 | 1016.1 | |
| 20260901160018 | 60 | 315 | 1.0 | 2.0 | 0.00 | 0.02 | 0.00 | 69 | 1015.9 |
| 20260901155018 | 60 | 0.0 | 2.0 | 0.00 | 0.02 | 0.00 | 71 | 1015.8 | |
| 20260901154018 | 60 | 315 | 1.0 | 3.0 | 0.00 | 0.02 | 0.00 | 71 | 1016.1 |
| 20260901153018 | 60 | 315 | 2.0 | 3.0 | 0.00 | 0.02 | 0.00 | 70 | 1016.1 |
| 20260901152018 | 60 | 315 | 2.0 | 2.0 | 0.00 | 0.02 | 0.00 | 72 | 1016.1 |
| 20260901151017 | 60 | 315 | 1.0 | 2.0 | 0.00 | 0.02 | 0.00 | 71 | 1016.0 |
| 20260901150017 | 60 | 315 | 1.0 | 2.0 | 0.00 | 0.02 | 0.00 | 73 | 1016.0 |
| 20260901145017 | 60 | 315 | 2.0 | 3.0 | 0.00 | 0.02 | 0.00 | 72 | 1015.9 |
| 20260901144017 | 59 | 315 | 3.0 | 5.0 | 0.00 | 0.02 | 0.00 | 73 | 1016.0 |
| 20260901143017 | 59 | 293 | 2.0 | 3.0 | 0.01 | 0.02 | 0.00 | 75 | 1016.0 |
| 20260901142017 | 58 | 315 | 2.0 | 3.0 | 0.01 | 0.02 | 0.00 | 75 | 1016.0 |
| 20260901141017 | 57 | 0 | 1.0 | 2.0 | 0.01 | 0.02 | 0.00 | 75 | 1016.0 |
| 20260901140026 | 57 | 0.0 | 2.0 | 0.01 | 0.02 | 0.02 | 78 | 1016.1 | |
| 20260901135017 | 57 | 0.0 | 2.0 | 0.01 | 0.02 | 0.02 | 78 | 1016.1 | |
| 20260901134017 | 57 | 0.0 | 2.0 | 0.01 | 0.02 | 0.02 | 80 | 1016.2 | |
| 20260901133017 | 58 | 0.0 | 2.0 | 0.00 | 0.02 | 0.02 | 80 | 1016.5 | |
| 20260901132017 | 58 | 0.0 | 0.0 | 0.00 | 0.02 | 0.02 | 80 | 1016.3 | |
| 20260901131017 | 58 | 0.0 | 2.0 | 0.00 | 0.02 | 0.02 | 80 | 1016.4 | |
| 20260901130017 | 58 | 0.0 | 2.0 | 0.00 | 0.02 | 0.02 | 77 | 1016.4 | |
| 20260901125017 | 58 | 0.0 | 0.0 | 0.02 | 0.02 | 0.02 | 78 | 1016.6 | |
| 20260901124017 | 57 | 0.0 | 2.0 | 0.02 | 0.02 | 0.02 | 79 | 1016.7 | |
| 20260901123017 | 57 | 0.0 | 1.0 | 0.02 | 0.02 | 0.02 | 76 | 1016.9 | |
| 20260901122017 | 57 | 0 | 1.0 | 3.0 | 0.02 | 0.02 | 0.02 | 77 | 1017.2 |
| 20260901121017 | 57 | 0.0 | 2.0 | 0.02 | 0.02 | 0.02 | 77 | 1017.0 | |
| 20260901120017 | 57 | 23 | 2.0 | 10.0 | 0.02 | 0.02 | 0.02 | 75 | 1017.3 |
| 20260901115017 | 56 | 0.0 | 2.0 | 0.00 | 0.00 | 0.00 | 69 | 1017.1 | |
| 20260901114017 | 56 | 0.0 | 2.0 | 0.00 | 0.00 | 0.00 | 70 | 1017.2 | |
| 20260901113017 | 57 | 0.0 | 2.0 | 0.00 | 0.00 | 0.00 | 69 | 1017.2 | |
| 20260901112017 | 57 | 0.0 | 0.0 | 0.00 | 0.00 | 0.00 | 69 | 1017.2 | |
| 20260901111017 | 57 | 0.0 | 2.0 | 0.00 | 0.00 | 0.00 | 68 | 1017.2 | |
| 20260901110017 | 57 | 0.0 | 1.0 | 0.00 | 0.00 | 0.00 | 67 | 1017.4 | |
| 20260901105017 | 57 | 0.0 | 2.0 | 0.00 | 0.00 | 0.00 | 67 | 1017.6 | |
| 20260901104017 | 57 | 0.0 | 2.0 | 0.00 | 0.00 | 0.00 | 66 | 1017.5 | |
| 20260901103017 | 57 | 0.0 | 1.0 | 0.00 | 0.00 | 0.00 | 65 | 1017.4 | |
| 20260901102019 | 58 | 0.0 | 1.0 | 0.00 | 0.00 | 0.00 | 64 | 1017.4 | |
| 20260901101019 | 58 | 0.0 | 2.0 | 0.00 | 0.00 | 0.00 | 63 | 1017.3 | |
| 20260901100019 | 59 | 0.0 | 2.0 | 0.00 | 0.00 | 0.00 | 62 | 1017.2 | |
| 20260901095019 | 60 | 0.0 | 2.0 | 0.00 | 0.00 | 0.00 | 60 | 1017.3 | |
| 20260901094019 | 60 | 0.0 | 1.0 | 0.00 | 0.00 | 0.00 | 60 | 1017.4 | |
| 20260901093019 | 61 | 0.0 | 2.0 | 0.00 | 0.00 | 0.00 | 58 | 1017.4 | |
| 20260901092019 | 62 | 0.0 | 2.0 | 0.00 | 0.00 | 0.00 | 56 | 1017.2 | |
| 20260901091018 | 62 | 0.0 | 2.0 | 0.00 | 0.00 | 0.00 | 54 | 1017.2 |